Change the Weather History Date:

Monday, June 4, 2012

  Actual Average Record
Temperature  
Mean Temperature 84 °F -  
Max Temperature 93 °F 86 °F 101 °F (2014)
Min Temperature 74 °F 64 °F 61 °F (2007)
Cooling Degree Days 18    
Growing Degree Days 34 (Base 50)    
Moisture  
Dew Point 66 °F    
Average Humidity 56    
Maximum Humidity 79    
Minimum Humidity 37    
Precipitation  
Precipitation 0.00 in - - ()
Sea Level Pressure  
Sea Level Pressure 29.78 in    
Wind  
Wind Speed 10 mph (ESE)    
Max Wind Speed 24 mph    
Max Gust Speed 30 mph    
Visibility 10 miles    
Events Rain    
Averages and records for this station are not official NWS values.
T = Trace of Precipitation, MM = Missing Value Source: NWS Daily Summary

Daily Weather History Graph

Daily Weather History Graph

Search for Another Location

Airport or City:

Trip Planner

Search our weather history database for the weather conditions in past years. The results will help you decide how hot, cold, wet, or windy it might be!

Date:

Astronomy

Jun. 04, 2012 Rise Set
Actual Time 6:24 AM CDT 8:46 PM CDT
Civil Twilight 5:55 AM CDT 9:16 PM CDT
Nautical Twilight 5:19 AM CDT 9:52 PM CDT
Astronomical Twilight 4:39 AM CDT 10:31 PM CDT
Moon 9:18 PM CDT (6/4) 6:32 AM CDT (6/4)
Length of Visible Light 15h 21m
Length of Day
14h 22m
Full, 100% of the Moon is Illuminated
Jun 4
Full
Jun 11
Last Quarter
Jun 19
New
Jun 26
First Quarter
Jul 3
Full

Hourly Weather History & Observations

Time (CDT) Temp. Heat Index Dew Point Humidity Pressure Visibility Wind Dir Wind Speed Gust Speed Precip Events Conditions
12:55 AM 82.9 °F 82.8 °F 59.2 °F 44% 29.73 in 10.0 mi ESE 9.2 mph - N/A   Clear
1:55 AM 82.2 °F 84.4 °F 66.2 °F 58% 29.72 in 10.0 mi South 12.7 mph - N/A   Clear
2:55 AM 81.9 °F 84.1 °F 66.0 °F 59% 29.71 in 10.0 mi South 13.8 mph - N/A   Mostly Cloudy
3:55 AM 81.3 °F 83.5 °F 66.0 °F 60% 29.70 in 10.0 mi South 16.1 mph - N/A   Mostly Cloudy
4:55 AM 80.8 °F 82.8 °F 65.8 °F 60% 29.75 in 10.0 mi Calm Calm - N/A   Overcast
5:55 AM 75.9 °F - 67.3 °F 74% 29.77 in 10.0 mi East 5.8 mph - N/A   Partly Cloudy
6:25 AM 75.2 °F - 68.0 °F 78% 29.78 in 10.0 mi ESE 6.9 mph - N/A Rain Light Rain
6:34 AM 75.2 °F - 68.0 °F 78% 29.78 in 10.0 mi ESE 8.1 mph - N/A   Scattered Clouds
6:55 AM 74.7 °F - 67.6 °F 79% 29.78 in 10.0 mi ESE 4.6 mph - 0.00 in   Scattered Clouds
7:55 AM 76.3 °F - 67.8 °F 75% 29.82 in 10.0 mi Calm Calm - N/A   Scattered Clouds
8:55 AM 79.3 °F - 67.6 °F 67% 29.83 in 10.0 mi Calm Calm - N/A   Partly Cloudy
9:55 AM 87.6 °F 90.8 °F 67.3 °F 51% 29.82 in 10.0 mi NE 6.9 mph - N/A   Clear
10:55 AM 83.3 °F 85.5 °F 66.0 °F 56% 29.83 in 10.0 mi East 24.2 mph - N/A   Clear
11:55 AM 80.6 °F 83.2 °F 67.6 °F 65% 29.83 in 10.0 mi ESE 18.4 mph 29.9 mph N/A   Partly Cloudy
12:55 PM 85.5 °F 88.2 °F 67.1 °F 54% 29.84 in 10.0 mi SE 11.5 mph 19.6 mph N/A   Scattered Clouds
1:55 PM 88.9 °F 91.4 °F 66.6 °F 47% 29.81 in 10.0 mi Calm Calm - N/A   Scattered Clouds
2:55 PM 90.9 °F 92.7 °F 64.9 °F 42% 29.79 in 10.0 mi East 6.9 mph - N/A   Partly Cloudy
3:55 PM 91.0 °F 92.2 °F 63.7 °F 40% 29.78 in 10.0 mi ENE 9.2 mph - N/A   Mostly Cloudy
4:55 PM 93.0 °F 95.9 °F 65.8 °F 41% 29.78 in 10.0 mi ESE 10.4 mph - N/A   Scattered Clouds
5:55 PM 91.9 °F 95.4 °F 66.9 °F 44% 29.77 in 10.0 mi ESE 16.1 mph - N/A   Clear
6:55 PM 92.7 °F 93.6 °F 63.0 °F 37% 29.74 in 9.0 mi ESE 13.8 mph - N/A   Clear
6:59 PM 91.4 °F 92.1 °F 62.6 °F 38% 29.74 in 2.5 mi SE 13.8 mph - N/A   Haze
7:04 PM 91.4 °F 92.1 °F 62.6 °F 38% 29.74 in 3.0 mi ESE 12.7 mph - N/A   Haze
7:27 PM 91.4 °F 93.2 °F 64.4 °F 41% 29.79 in 10.0 mi ESE 10.4 mph - N/A   Clear
7:55 PM 89.8 °F 90.7 °F 63.0 °F 41% 29.76 in 10.0 mi ESE 12.7 mph - N/A   Clear
8:55 PM 85.1 °F 86.4 °F 64.0 °F 49% 29.78 in 10.0 mi East 10.4 mph - N/A   Clear
9:55 PM 79.5 °F - 65.1 °F 61% 29.80 in 10.0 mi East 6.9 mph - N/A   Partly Cloudy
10:55 PM 78.8 °F - 66.7 °F 66% 29.82 in 10.0 mi East 5.8 mph - N/A   Clear
11:55 PM 77.2 °F - 68.0 °F 73% 29.83 in 10.0 mi East 6.9 mph - N/A   Clear